WA2GUG Weather Reports


time (UTC)temp
F
wind
direction
speed
knots
gust
knots
rain 1hr
in
rain 24hr
in
rain mn
in
humidity
%
barometer
mb
20260906233709 59 135 0.0 0.0 0.00 0.00 0.00 99 1011.2
20260906233209 60 107 0.0 0.0 0.00 0.00 0.00 99 1011.1
20260906232709 61 142 0.0 0.0 0.00 0.00 0.00 99 1011.0
20260906232209 61 123 0.0 0.0 0.00 0.00 0.00 99 1011.0
20260906231709 62 166 0.0 0.0 0.00 0.00 0.00 99 1011.0
20260906231209 63 225 0.0 0.0 0.00 0.00 0.00 99 1011.0
20260906230709 64 225 0.0 0.0 0.00 0.00 0.00 99 1011.0
20260906230209 64 225 0.0 0.0 0.00 0.00 0.00 99 1011.0
20260906225709 65 225 0.0 0.0 0.00 0.00 0.00 99 1011.0
20260906225209 66 225 0.0 0.0 0.00 0.00 0.00 99 1011.0
20260906224709 68 225 0.0 0.0 0.00 0.00 0.00 99 1011.0
20260906224209 70 225 0.0 0.0 0.00 0.00 0.00 99 1011.0
20260906223709 72 216 0.0 0.0 0.00 0.00 0.00 99 1011.0
20260906223209 74 163 0.0 0.0 0.00 0.00 0.00 99 1011.0
20260906222709 77 170 0.0 0.0 0.00 0.00 0.00 99 1011.0
20260906222209 80 205 0.0 0.0 0.00 0.00 0.00 99 1011.0
20260906221709 82 241 0.0 0.0 0.00 0.00 0.00 99 1011.0
20260906221209 83 216 0.0 0.0 0.00 0.00 0.00 99 1011.0
20260906220709 82 178 0.0 0.0 0.00 0.00 0.00 99 1011.0
20260906220209 83 179 0.0 0.0 0.00 0.00 0.00 99 1011.0
20260906215709 84 167 0.0 0.0 0.00 0.00 0.00 99 1011.0
20260906215209 85 84 0.0 0.0 0.00 0.00 0.00 99 1011.0
20260906214709 86 181 0.0 0.0 0.00 0.00 0.00 99 1011.0
20260906214209 87 226 0.0 0.0 0.00 0.00 0.00 99 1011.0
20260906213709 86 90 0.0 0.0 0.00 0.00 0.00 99 1011.0
20260906213209 86 137 0.0 0.0 0.00 0.00 0.00 99 1011.0
20260906212709 89 86 0.0 0.0 0.00 0.00 0.00 99 1011.0
20260906212209 89 143 0.0 0.0 0.00 0.00 0.00 99 1011.0
20260906211709 89 182 0.0 0.9 0.00 0.00 0.00 99 1011.0
20260906211209 90 194 0.0 0.9 0.00 0.00 0.00 99 1011.0
20260906210709 90 70 0.0 0.0 0.00 0.00 0.00 99 1011.0
20260906210209 89 139 0.0 0.9 0.00 0.00 0.00 99 1011.0
20260906205709 89 90 0.0 0.9 0.00 0.00 0.00 99 1011.0
20260906205208 91 136 0.0 0.0 0.00 0.00 0.00 99 1011.0
20260906204709 92 182 0.0 0.0 0.00 0.00 0.00 99 1011.0
20260906204208 92 152 0.0 0.0 0.00 0.00 0.00 99 1011.0
20260906203708 92 178 0.0 0.0 0.00 0.00 0.00 99 1011.0
20260906203208 92 156 0.0 0.0 0.00 0.00 0.00 99 1011.0
20260906202708 91 162 0.0 0.0 0.00 0.00 0.00 99 1011.0
20260906202208 90 7 0.0 0.0 0.00 0.00 0.00 99 1011.0
20260906201709 89 176 0.0 0.0 0.00 0.00 0.00 99 1011.0
20260906201208 89 145 0.0 5.2 0.00 0.00 0.00 99 1011.0
20260906200708 90 142 0.9 5.2 0.00 0.00 0.00 99 1011.0
20260906200208 91 94 0.0 0.0 0.00 0.00 0.00 99 1011.0
20260906195708 91 164 0.0 0.0 0.00 0.00 0.00 99 1011.0
20260906195208 90 85 0.0 0.0 0.00 0.00 0.00 99 1011.0
20260906194708 91 155 0.0 0.0 0.00 0.00 0.00 99 1011.0
20260906194208 90 91 0.0 0.0 0.00 0.00 0.00 99 1011.0
20260906193708 90 315 0.0 2.6 0.00 0.00 0.00 99 1011.0
20260906193208 89 88 0.0 5.2 0.00 0.00 0.00 99 1011.0
20260906192708 88 95 0.9 5.2 0.00 0.00 0.00 99 1011.0
20260906192208 86 142 0.0 6.1 0.00 0.00 0.00 99 1011.0
20260906191709 85 173 0.9 6.1 0.00 0.00 0.00 99 1011.0
20260906191208 84 83 0.0 0.0 0.00 0.00 0.00 99 1011.0
20260906190708 87 138 0.0 0.0 0.00 0.00 0.00 99 1011.0
20260906190208 86 144 0.0 0.0 0.00 0.00 0.00 99 1011.0
20260906185708 84 174 0.0 0.0 0.00 0.00 0.00 99 1011.0
20260906185208 83 51 0.0 0.0 0.00 0.00 0.00 99 1011.0
20260906184708 82 132 0.0 0.0 0.00 0.00 0.00 99 1011.0
20260906184208 80 97 0.0 0.0 0.00 0.00 0.00 99 1011.0
20260906183708 80 53 0.0 0.0 0.00 0.00 0.00 99 1011.0
20260906183208 83 133 0.0 0.0 0.00 0.00 0.00 99 1011.0
20260906182708 87 146 0.0 0.0 0.00 0.00 0.00 99 1011.0
20260906182208 87 98 0.0 0.0 0.00 0.00 0.00 99 1011.0
20260906181708 88 89 0.0 0.0 0.00 0.00 0.00 99 1011.0
20260906181208 88 1 0.0 0.9 0.00 0.00 0.00 99 1011.0
20260906180708 86 142 0.0 0.9 0.00 0.00 0.00 99 1011.0
20260906180208 83 131 0.0 0.0 0.00 0.00 0.00 99 1011.0
20260906175708 83 147 0.0 0.9 0.00 0.00 0.00 99 1011.0
20260906175208 83 134 0.0 0.9 0.00 0.00 0.00 99 1011.0
20260906174708 85 130 0.0 0.9 0.00 0.00 0.00 99 1011.0
20260906174208 83 135 0.0 0.0 0.00 0.00 0.00 99 1011.0
20260906173708 82 135 0.0 2.6 0.00 0.00 0.00 99 1011.0
20260906173208 85 136 0.0 2.6 0.00 0.00 0.00 99 1011.0
20260906172708 88 81 0.0 0.0 0.00 0.00 0.00 99 1011.0
20260906172208 85 144 0.0 2.6 0.00 0.00 0.00 99 1011.0
20260906171709 85 133 0.0 2.6 0.00 0.00 0.00 99 1011.0
20260906171208 84 277 0.0 1.7 0.00 0.00 0.00 99 1011.0
20260906170708 83 91 0.0 0.0 0.00 0.00 0.00 99 1011.0
20260906170208 82 100 0.0 0.0 0.00 0.00 0.00 99 1011.0
20260906165708 82 131 0.0 0.0 0.00 0.00 0.00 99 1011.0
20260906165208 83 129 0.0 0.0 0.00 0.00 0.00 99 1011.0
20260906164708 86 118 0.0 0.0 0.00 0.00 0.00 99 1011.0
20260906164208 86 91 0.0 0.9 0.00 0.00 0.00 99 1011.0
20260906163708 85 138 0.0 0.9 0.00 0.00 0.00 99 1011.0
20260906163208 83 52 0.0 0.0 0.00 0.00 0.00 99 1011.0
20260906162708 81 170 0.0 0.0 0.00 0.00 0.00 99 1011.0
20260906162208 81 170 0.0 0.9 0.00 0.00 0.00 99 1011.0
20260906161708 82 169 0.0 0.9 0.00 0.00 0.00 99 1011.0
20260906161208 83 90 0.0 0.9 0.00 0.00 0.00 99 1011.1
20260906160708 82 12 0.0 0.0 0.00 0.00 0.00 99 1011.1
20260906160208 82 5 0.0 0.0 0.00 0.00 0.00 99 1011.1
20260906155708 81 6 0.0 0.0 0.00 0.00 0.00 99 1011.2
20260906155208 80 138 0.0 0.0 0.00 0.00 0.00 99 1011.2
20260906154708 79 212 0.0 0.0 0.00 0.00 0.00 99 1012.0
20260906154208 78 149 0.0 0.0 0.00 0.00 0.00 99 1011.2
20260906153708 78 98 0.0 0.0 0.00 0.00 0.00 99 1012.0
20260906153208 79 131 0.0 0.0 0.00 0.00 0.00 99 1011.2
20260906152708 80 91 0.0 0.9 0.00 0.00 0.00 99 1011.2
20260906152208 81 137 0.0 2.6 0.00 0.00 0.00 99 1011.2
20260906151708 81 172 0.0 2.6 0.00 0.00 0.00 99 1012.0
20260906151208 82 141 0.0 0.9 0.00 0.00 0.00 99 1012.0
20260906150708 82 97 0.0 0.9 0.00 0.00 0.00 99 1012.0
20260906150208 81 139 0.0 0.9 0.00 0.00 0.00 99 1011.2
20260906145708 81 144 0.0 0.0 0.00 0.00 0.00 99 1011.1
20260906145208 80 33 0.0 0.9 0.00 0.00 0.00 99 1011.0
20260906144708 79 133 0.0 0.9 0.00 0.00 0.00 99 1011.0
20260906144208 77 80 0.0 0.0 0.00 0.00 0.00 99 1011.0
20260906143708 76 177 0.0 0.0 0.00 0.00 0.00 99 1011.0
20260906143208 77 42 0.0 0.9 0.00 0.00 0.00 99 1011.0
20260906142708 78 133 0.0 0.9 0.00 0.00 0.00 99 1011.0
20260906142208 78 140 0.0 0.0 0.00 0.00 0.00 99 1011.0
20260906141708 79 95 0.0 0.0 0.00 0.00 0.00 99 1011.0
20260906141208 79 139 0.0 0.9 0.00 0.00 0.00 99 1011.0
20260906140708 77 175 0.0 0.9 0.00 0.00 0.00 99 1011.0
20260906140208 74 137 0.0 0.0 0.00 0.00 0.00 99 1011.0
20260906135708 71 135 0.0 0.0 0.00 0.00 0.00 99 1011.0
20260906135208 70 131 0.0 0.0 0.00 0.00 0.00 99 1011.0
20260906134708 70 133 0.0 0.0 0.00 0.00 0.00 99 1011.0
20260906134208 71 165 0.0 0.0 0.00 0.00 0.00 99 1011.0
20260906133708 70 162 0.0 1.7 0.00 0.00 0.00 99 1011.0
20260906133208 70 140 0.0 1.7 0.00 0.00 0.00 99 1011.0
20260906132708 0 134 0.0 0.0 0.00 0.00 0.00 99 1011.0
20260906132208 0 131 0.0 0.0 0.00 0.00 0.00 99 1011.0
20260906131708 0 59 0.0 0.0 0.00 0.00 0.00 99 1011.0
20260906131208 0 141 0.0 0.0 0.00 0.00 0.00 99 1011.0
20260906130708 0 140 0.0 0.0 0.00 0.00 0.00 99 1011.0
20260906130208 0 154 0.0 0.0 0.00 0.00 0.00 99 1011.0
20260906125708 0 133 0.0 0.0 0.00 0.00 0.00 99 1011.0
20260906125208 0 143 0.0 0.0 0.00 0.00 0.00 99 1011.0
20260906124708 0 174 0.0 0.0 0.00 0.00 0.00 99 1011.0
20260906124208 0 89 0.0 0.0 0.00 0.00 0.00 99 1011.0
20260906123708 0 54 0.0 0.0 0.00 0.00 0.00 99 1011.0
20260906123208 0 158 0.0 0.0 0.00 0.00 0.00 99 1011.0
20260906122708 0 148 0.0 0.0 0.00 0.00 0.00 99 1011.0
20260906122208 0 154 0.0 0.0 0.00 0.00 0.00 99 1011.0
20260906121708 0 125 0.0 0.0 0.00 0.00 0.00 99 1010.2
20260906121208 0 1 0.0 0.0 0.00 0.00 0.00 99 1010.2
20260906120708 0 159 0.0 0.0 0.00 0.00 0.00 99 1011.0
20260906120208 0 146 0.0 0.0 0.00 0.00 0.00 99 1011.0
20260906115708 0 82 0.0 0.0 0.00 0.00 0.00 99 1010.2
20260906115208 0 31 0.0 0.0 0.00 0.00 0.00 99 1010.2
20260906114708 0 6 0.0 0.0 0.00 0.00 0.00 99 1011.0
20260906114208 0 97 0.0 0.0 0.00 0.00 0.00 99 1011.0
20260906113708 0 347 0.0 0.0 0.00 0.00 0.00 99 1010.2
20260906113208 0 344 0.0 0.0 0.00 0.00 0.00 99 1010.2
20260906112708 0 342 0.0 0.0 0.00 0.00 0.00 99 1010.2
20260906112208 0 332 0.0 0.0 0.00 0.00 0.00 99 1010.1
20260906111708 0 302 0.0 0.0 0.00 0.00 0.00 99 1010.0
20260906111208 0 261 0.0 0.0 0.00 0.00 0.00 99 1010.0
20260906110708 0 202 0.0 0.0 0.00 0.00 0.00 99 1010.0
20260906110208 0 190 0.0 0.0 0.00 0.00 0.00 99 1010.0
20260906105708 0 180 0.0 0.0 0.00 0.00 0.00 99 1010.0
20260906105208 0 180 0.0 0.0 0.00 0.00 0.00 99 1010.0
20260906104708 0 180 0.0 0.0 0.00 0.00 0.00 99 1010.0
20260906104208 0 159 0.0 0.0 0.00 0.00 0.00 99 1010.0
20260906103708 0 112 0.0 0.0 0.00 0.00 0.00 99 1010.0
20260906103208 0 103 0.0 0.0 0.00 0.00 0.00 99 1010.0
20260906102708 0 106 0.0 0.0 0.00 0.00 0.00 99 1010.0
20260906102208 0 91 0.0 0.0 0.00 0.00 0.00 99 1010.0
20260906101708 0 143 0.0 0.0 0.00 0.00 0.00 99 1010.0
20260906101208 0 124 0.0 0.0 0.00 0.00 0.00 99 1010.0
20260906100708 0 112 0.0 0.0 0.00 0.00 0.00 99 1010.0
20260906100208 0 112 0.0 0.0 0.00 0.00 0.00 99 1010.0
20260906095708 0 105 0.0 0.0 0.00 0.00 0.00 99 1009.2
20260906095208 0 103 0.0 0.0 0.00 0.00 0.00 99 1010.0
20260906094708 0 141 0.0 0.0 0.00 0.00 0.00 99 1010.0
20260906094208 0 209 0.0 0.0 0.00 0.00 0.00 99 1010.0
20260906093708 0 315 0.0 0.0 0.00 0.00 0.00 99 1010.0
20260906093208 0 249 0.0 0.0 0.00 0.00 0.00 99 1010.0
20260906092708 0 200 0.0 0.0 0.00 0.00 0.00 99 1010.0
20260906092208 0 109 0.0 0.0 0.00 0.00 0.00 99 1010.0
20260906091708 0 115 0.0 0.0 0.00 0.00 0.00 99 1010.0
20260906091208 0 157 0.0 0.0 0.00 0.00 0.00 99 1010.0
20260906090708 0 157 0.0 0.0 0.00 0.00 0.00 99 1009.2
20260906090208 0 146 0.0 0.0 0.00 0.00 0.00 99 1009.2
20260906085708 0 135 0.0 0.0 0.00 0.00 0.00 99 1009.1
20260906085208 0 108 0.0 0.0 0.00 0.00 0.00 99 1009.2
20260906084708 0 99 0.0 0.0 0.00 0.00 0.00 99 1009.1
20260906084208 0 135 0.0 0.0 0.00 0.00 0.00 99 1009.1
20260906083708 0 135 0.0 0.0 0.00 0.00 0.00 99 1009.1
20260906083208 0 135 0.0 0.0 0.00 0.00 0.00 99 1009.0
20260906082708 0 135 0.0 0.0 0.00 0.00 0.00 99 1009.0
20260906082208 0 135 0.0 0.0 0.00 0.00 0.00 99 1009.0
20260906081708 0 135 0.0 0.0 0.00 0.00 0.00 99 1009.0
20260906081208 0 135 0.0 0.0 0.00 0.00 0.00 99 1009.0
20260906080708 0 135 0.0 0.0 0.00 0.00 0.00 99 1009.0
20260906080208 0 135 0.0 0.0 0.00 0.00 0.00 99 1009.0
20260906075708 0 135 0.0 0.0 0.00 0.00 0.00 99 1009.0
20260906075207 58 135 0.0 0.0 0.00 0.00 0.00 99 1009.0
20260906074708 58 135 0.0 0.0 0.00 0.00 0.00 99 1009.0
20260906074208 58 135 0.0 0.0 0.00 0.00 0.00 99 1009.0
20260906073707 59 135 0.0 0.0 0.00 0.00 0.00 99 1009.0
20260906073208 59 135 0.0 0.0 0.00 0.00 0.00 99 1009.0
20260906072707 59 135 0.0 0.0 0.00 0.00 0.00 99 1009.0
20260906072207 59 132 0.0 0.0 0.00 0.00 0.00 99 1009.0
20260906071708 60 97 0.0 0.0 0.00 0.00 0.00 99 1009.0
20260906071207 60 86 0.0 0.0 0.00 0.00 0.00 99 1009.0
20260906070707 60 167 0.0 0.0 0.00 0.00 0.00 99 1009.0
20260906070207 61 313 0.0 0.0 0.00 0.00 0.00 99 1009.0
20260906065707 61 316 0.0 0.0 0.00 0.00 0.00 99 1009.0
20260906065207 61 102 0.0 0.0 0.00 0.00 0.00 99 1009.0
20260906064707 0 16 0.0 0.0 0.00 0.00 0.00 99 1009.0
20260906064207 0 88 0.0 0.0 0.00 0.00 0.00 99 1009.0
20260906063707 0 68 0.0 0.0 0.00 0.00 0.00 99 1009.0
20260906063207 60 345 0.0 0.0 0.00 0.00 0.00 99 1009.0
20260906062707 60 325 0.0 0.0 0.00 0.00 0.00 99 1009.0
20260906062207 60 113 0.0 0.0 0.00 0.00 0.00 99 1009.0
20260906061708 60 101 0.0 0.0 0.00 0.00 0.00 99 1009.0
20260906061207 60 125 0.0 0.0 0.00 0.00 0.00 99 1009.0
20260906060707 60 135 0.0 0.0 0.00 0.00 0.00 99 1009.0
20260906060207 0 106 0.0 0.0 0.00 0.00 0.00 99 1009.0
20260906055707 0 97 0.0 0.0 0.00 0.00 0.00 99 1009.0
20260906055207 0 91 0.0 0.0 0.00 0.00 0.00 99 1009.0
20260906054707 0 90 0.0 0.0 0.00 0.00 0.00 99 1009.0
20260906054207 0 84 0.0 0.0 0.00 0.00 0.00 99 1009.1
20260906053707 0 95 0.0 0.0 0.00 0.00 0.00 99 1009.2
20260906053207 0 205 0.0 0.0 0.00 0.00 0.00 99 1009.2
20260906052707 0 106 0.0 0.0 0.00 0.00 0.00 99 1010.0
20260906052207 0 115 0.0 0.0 0.00 0.00 0.00 99 1010.0
20260906051708 0 99 0.0 0.0 0.00 0.00 0.00 99 1009.2
20260906051207 0 101 0.0 0.0 0.00 0.00 0.00 99 1010.0
20260906050707 0 51 0.0 0.0 0.00 0.00 0.00 99 1010.0
20260906050207 0 16 0.0 0.0 0.00 0.00 0.00 99 1010.0
20260906045707 0 315 0.0 0.0 0.00 0.00 0.00 99 1010.0
20260906045207 0 331 0.0 0.0 0.00 0.00 0.00 99 1010.0
20260906044707 0 0 0.0 0.0 0.00 0.00 0.00 99 1010.0
20260906044207 0 125 0.0 0.0 0.00 0.00 0.00 99 1009.2
20260906043707 0 107 0.0 0.0 0.00 0.00 0.00 99 1010.0
20260906043207 0 145 0.0 0.0 0.00 0.00 0.00 99 1009.2
20260906042707 0 103 0.0 0.0 0.00 0.00 0.00 99 1009.2
20260906042207 0 48 0.0 0.0 0.00 0.00 0.00 99 1010.0
20260906041707 0 172 0.0 0.0 0.00 0.00 0.00 99 1010.0
20260906041207 0 124 0.0 0.0 0.00 0.00 0.00 99 1010.0
20260906040707 0 109 0.0 0.0 0.00 0.00 0.00 99 1010.0
20260906040207 0 349 0.0 0.0 0.00 0.00 0.00 99 1009.2
20260906035707 0 106 0.0 0.0 0.00 0.00 0.00 99 1010.0
20260906035207 0 113 0.0 0.0 0.00 0.00 0.00 99 1010.0
20260906034707 0 99 0.0 0.0 0.00 0.00 0.00 99 1010.0
20260906034207 0 112 0.0 0.0 0.00 0.00 0.00 99 1010.0
20260906033707 0 91 0.0 0.0 0.00 0.00 0.00 99 1010.0
20260906033207 0 149 0.0 0.0 0.00 0.00 0.00 99 1009.2
20260906032707 0 140 0.0 0.0 0.00 0.00 0.00 99 1009.1
20260906032207 0 118 0.0 0.0 0.00 0.00 0.00 99 1009.0
20260906031707 0 135 0.0 0.0 0.00 0.00 0.00 99 1009.0
20260906031207 0 135 0.0 0.0 0.00 0.00 0.00 99 1009.0
20260906030707 0 135 0.0 0.0 0.00 0.00 0.00 99 1009.0
20260906030207 60 159 0.0 0.0 0.00 0.00 0.00 99 1009.0
20260906025707 0 175 0.0 0.0 0.00 0.00 0.00 99 1009.0
20260906025207 0 112 0.0 0.0 0.00 0.00 0.00 99 1009.0
20260906024707 61 92 0.0 0.0 0.00 0.00 0.00 99 1009.0
20260906024207 61 86 0.0 0.0 0.00 0.00 0.00 99 1009.0
20260906023707 0 169 0.0 0.0 0.00 0.00 0.00 99 1009.0
20260906023207 0 141 0.0 0.0 0.00 0.00 0.00 99 1009.0
20260906022707 61 103 0.0 0.0 0.00 0.00 0.00 99 1009.0
20260906022207 61 71 0.0 0.0 0.00 0.00 0.00 99 1009.0
20260906021707 61 270 0.0 0.0 0.00 0.00 0.00 99 1009.0
20260906021207 61 215 0.0 0.0 0.00 0.00 0.00 99 1009.0
20260906020707 61 202 0.0 0.0 0.00 0.00 0.00 99 1009.0
20260906020207 0 199 0.0 0.0 0.00 0.00 0.00 99 1009.0
20260906015707 0 180 0.0 0.0 0.00 0.00 0.00 99 1009.0
20260906015207 60 179 0.0 0.0 0.00 0.00 0.00 99 1009.0
20260906014707 60 177 0.0 0.0 0.00 0.00 0.00 99 1009.0
20260906014207 60 184 0.0 0.0 0.00 0.00 0.00 99 1009.0
20260906013707 60 180 0.0 0.0 0.00 0.00 0.00 99 1009.0
20260906013207 60 180 0.0 0.0 0.00 0.00 0.00 99 1009.0
20260906012707 60 180 0.0 0.0 0.00 0.00 0.00 99 1009.0
20260906012207 60 226 0.0 0.0 0.00 0.00 0.00 99 1009.0
20260906011707 60 247 0.0 0.0 0.00 0.00 0.00 99 1009.0
20260906011207 60 120 0.0 0.0 0.00 0.00 0.00 99 1009.0
20260906010707 60 142 0.0 0.0 0.00 0.00 0.00 99 1009.0
20260906010207 60 180 0.0 0.0 0.00 0.00 0.00 99 1009.0
20260906005707 60 180 0.0 0.0 0.00 0.00 0.00 99 1009.0
20260906005207 60 108 0.0 0.0 0.00 0.00 0.00 99 1009.0
20260906004707 60 118 0.0 0.0 0.00 0.00 0.00 99 1009.0
20260906004207 60 117 0.0 0.0 0.00 0.00 0.00 99 1009.0
20260906003707 60 157 0.0 0.0 0.00 0.00 0.00 99 1009.0
20260906003207 60 157 0.0 0.0 0.00 0.00 0.00 99 1009.0
20260906002707 60 157 0.0 0.0 0.00 0.00 0.00 99 1009.0
20260906002207 60 157 0.0 0.0 0.00 0.00 0.00 99 1009.0
20260906001707 60 157 0.0 0.0 0.00 0.00 0.00 99 1009.0
20260906001207 60 157 0.0 0.0 0.00 0.00 0.00 99 1009.0
20260906000707 61 157 0.0 0.0 0.00 0.00 0.00 99 1009.0
20260906000207 61 157 0.0 0.0 0.00 0.00 0.00 99 1008.2
20260905235707 61 157 0.0 0.0 0.00 0.00 0.00 99 1008.2
20260905235207 61 157 0.0 0.0 0.00 0.00 0.00 99 1009.0
20260905234707 62 142 0.0 0.0 0.00 0.00 0.00 99 1009.0
20260905234207 62 135 0.0 0.0 0.00 0.00 0.00 99 1009.0